sat.trackr.live / text

‹ back to catalog

STARLINK-4784

NORAD 53839 · 2022-114X

PAYLOAD ACTIVE UNKNOWN

§ Identity

Operator
Country
US
Launch date
2022-09-19
Launch site
AFETR
Launch vehicle
Mass (kg)
RCS (m²)

Purposes: comms

External: N2YO · Heavens-Above · Gunter

§ Orbital elements

Epoch: 2026-09-19T22:36:37.237824Z

Period
95.44 min
Inclination
53.1601°
Eccentricity
0.0001849
Mean motion
15.08866707 rev/d
Perigee alt
538.4 km
Apogee alt
540.9 km
Semi-major
6,917.8 km
B*
-4.3444e-4
RAAN
141.6772°
Arg perigee
88.7418°
Mean anomaly
271.3785°
Rev number
22,229

§ Raw data

STARLINK-47841 53839U 22114X   26262.94209766 -.00007201  00000+0 -43444-3 0  99922 53839  53.1601 141.6772 0001849  88.7418 271.3785 15.08866707222290

JSON: /api/v1/satellites/53839 · /tle

For live sub-satellite position, see the globe view (requires WebGL).

§ Visibility from observer

Set your observer location to see the next 7 days of passes ≥ 10°. The values pass through the URL so the page stays shareable.

No JS? Fill the form by hand. The geolocation button needs JavaScript.